Regional Weather Roundup
Issued by NWS

Home | Current Version | Previous Version | Text Only | Print | Product List | Glossary Off
Versions: 1 2 3 4 5 6 7 8 9 10 11 12 13 14 15 16 17 18 19 20 21 22 23 24 25 26 27 28 29 30 31 32 33 34 35 36 37 38 39 40 41 42 43 44 45 46 47 48 49 50

000
ASUS43 KLOT 300000
RWRIL

ILLINOIS REGIONAL WEATHER ROUNDUP
NATIONAL WEATHER SERVICE CHICAGO/ROMEOVILLE IL
700 PM CDT WED JUL 29 2015

NOTE: "FAIR" INDICATES FEW OR NO CLOUDS BELOW 12,000 FEET WITH NO
SIGNIFICANT WEATHER AND/OR OBSTRUCTIONS TO VISIBILITY.

* THESE STATIONS ARE NOT UNDER NWS QUALITY CONTROL. THEY ALSO MAY NOT
  REPORT WEATHER SUCH AS PRECIPITATION OR FOG.

ILZ001-002-007-009-015-016-024-300100-
NORTHWEST ILLINOIS

CITY           SKY/WX    TMP DP  RH WIND       PRES   REMARKS
MOLINE         SUNNY     82  57  42 W13       30.03S HX  82
6HR MIN TEMP:  82; 6HR MAX TEMP:  86;

STERLING*      SUNNY     81  59  47 W9        30.00S HX  81
$$

ILZ003-004-008-010-011-017-018-300100-
NORTH CENTRAL ILLINOIS

CITY           SKY/WX    TMP DP  RH WIND       PRES   REMARKS
ROCKFORD       MOSUNNY   81  54  39 W12       30.00S HX  81
6HR MIN TEMP:  81; 6HR MAX TEMP:  86;

$$

ILZ005-006-012>014-019>023-300100-
NORTHEAST ILLINOIS

CITY           SKY/WX    TMP DP  RH WIND       PRES   REMARKS
CHICAGO-OHARE  MOSUNNY   82  51  34 NW15      29.97R HX  81
6HR MIN TEMP:  82; 6HR MAX TEMP:  88;

CHICAGO-MIDWAY MOSUNNY   85  48  27 NW17G25   29.96S HX  82
6HR MIN TEMP:  85; 6HR MAX TEMP:  90;

AURORA         SUNNY     79  58  48 W10       30.00S HX  80
6HR MIN TEMP:  79; 6HR MAX TEMP:  84;

WAUKEGAN       SUNNY     80  52  37 VRB5      29.95R HX  80
6HR MIN TEMP:  80; 6HR MAX TEMP:  84;

DUPAGE AIRPORT SUNNY     81  52  36 W14G22    29.98S HX  80
6HR MIN TEMP:  81; 6HR MAX TEMP:  86;

WHEELING       SUNNY     83  49  30 W20G25    29.97S HX  81
6HR MIN TEMP:  82; 6HR MAX TEMP:  88;

NORTHERLY ISL    N/A     83  49  30 W12         N/A  HX  81
$$

LMZ740>746-300100-
SOUTHERN LAKE MICHIGAN

STATION/POSITION SKY/WX   TEMP    WIND        PRES    VSBY  WAVE
                          AIR SEA DIR/SP/G                  HT/PER
                          (F)     (DEG/KT/KT) (MB)    (MI)  (FT/S)
HARRISON CRIB              83     270/ 20/ 24   N/A
BURNHAM HARBOR             85     280/  7/ 16   N/A
CALUMET HARBOR             85     270/  7/ 12   N/A
BURNS HARBOR               83      30/  2/  3 1014.9S
MICHIGAN CITY              78     240/  3/  4   N/A
MICHIGAN CITY 6N           80 78  300/  2/  2   N/A           1
ST. JOSEPH                 78 76  350/ 10/ 12   N/A           1/ 2
$$

ILZ025>027-034>036-040-047-049-050-058-095>099-300100-
WEST-CENTRAL ILLINOIS

CITY           SKY/WX    TMP DP  RH WIND       PRES   REMARKS
QUINCY         SUNNY     80  60  50 NW6       30.08S HX  81
$$

ILZ028>032-037-038-041>044-048-051>054-059>061-300100-
CENTRAL ILLINOIS

CITY           SKY/WX    TMP DP  RH WIND       PRES   REMARKS
DECATUR        SUNNY     83  60  45 NW10      30.04R HX  83
PEORIA         SUNNY     82  58  43 NW6       30.04F HX  82
6HR MIN TEMP:  82; 6HR MAX TEMP:  87;

SPRINGFIELD    SUNNY     83  58  42 NW8       30.05S HX  83
6HR MIN TEMP:  83; 6HR MAX TEMP:  90;

TAYLORVILLE    NOT AVBL
$$

ILZ033-039-045-046-055>057-062-063-300100-
EAST-CENTRAL ILLINOIS

CITY           SKY/WX    TMP DP  RH WIND       PRES   REMARKS
CHAMPAIGN      MOSUNNY   80  63  55 NW9       30.03R HX  81
MATTOON        MOSUNNY   83  67  58 N13       30.02R HX  85
$$

ILZ079-100>102-300100-
SOUTHWEST ILLINOIS

CITY           SKY/WX    TMP DP  RH WIND       PRES   REMARKS
BELLEVILLE     MOSUNNY   85  70  60 VRB7      30.03R HX  90
CAHOKIA*       MOSUNNY   87  62  43 N16G23    30.04R HX  87
$$

ILZ064>066-069>071-074>076-080>082-084>086-088>090-092>094-300100-
SOUTH-CENTRAL ILLINOIS

CITY           SKY/WX    TMP DP  RH WIND       PRES   REMARKS
CARBONDALE     CLOUDY    87  76  69 N8        30.00R HX  97
6HR MIN TEMP:  85; 6HR MAX TEMP:  92; 6HR PCP:  0.04;

MT. VERNON     PTSUNNY   84  73  70 N3        30.01R HX  91
$$

ILZ067-068-072-073-078-083-087-091-300100-
SOUTHEAST ILLINOIS

CITY           SKY/WX    TMP DP  RH WIND       PRES   REMARKS
LAWRENCEVILLE  CLOUDY    82  78  88 NW3       29.98R HX  91
$$

ABBREVIATIONS USED IN REMARKS
   TC - TEMPERATURE IN CELSIUS
  WCI - WIND CHILL INDEX
   HX - HEAT INDEX
  VSB - VISIBILITY
$$



USA.gov is the U.S. government's official web portal to all federal, state and local government web resources and services.